Terug naar catalogus

STARLINK-34165

ActiefCommunicatieVLEO
NORAD 63997·PAYLOAD·🇺🇸 United States

Gelanceerd May 14, 2025 vanaf Cape Canaveral Space Force Station

Loading…

Volgende Passages (komende 24 uur)

TLE

VersSource: CelesTrak SupGP

Epoch: Sep 14, 2026, 23:04 UTC

1 63997C 25101D   26257.96159722 -.00013337  00000+0 -48302-3 0  2571
2 63997  43.0039   8.7516 0001475 272.5446 153.0920 15.27587433    15

Volg STARLINK-34165 in realtime met AllMySat

Download on the App Store